Regional Weather Roundup
Issued by NWS Cleveland, OH

Home | Current Version | Previous Version | Graphics & Text | Print | Product List | Glossary On
Versions: 1 2 3 4 5 6 7 8 9 10 11 12 13 14 15 16 17 18 19 20 21 22 23 24 25 26 27 28 29 30 31 32 33 34 35 36 37 38 39 40 41 42 43 44 45 46 47 48 49 50
504
ASUS41 KCLE 241710
RWRCLE
OHIO REGIONAL WEATHER ROUNDUP
NATIONAL WEATHER SERVICE WILMINGTON, OH
100 PM EDT WED AUG 24 2016

NOTE: "FAIR" INDICATES FEW OR NO CLOUDS BELOW 12,000 FEET WITH NO
SIGNIFICANT WEATHER AND/OR OBSTRUCTIONS TO VISIBILITY.

OHZ001>008-015>018-024>027-034-035-043-044-241800-
   NORTHWEST OHIO

CITY           SKY/WX    TMP DP  RH WIND       PRES   REMARKS
DEFIANCE       PTSUNNY   82  68  62 S10G21    30.09F
FINDLAY        FAIR      82  67  60 S15       30.12F
TOLEDO EXPRESS FAIR      81  70  69 S16G28    30.09F
TOLEDO EXEC    FAIR      83  69  62 S20       30.10F
LIMA           PTSUNNY   81  71  71 S12       30.13F
$$

OHZ009>014-019>023-028>033-038-089-241800-
   NORTHEAST OHIO

CITY           SKY/WX    TMP DP  RH WIND       PRES   REMARKS
CLE-HOPKINS    FAIR      81  60  48 S15G24    30.17F
CLE-LAKEFRONT  FAIR      85  59  41 S16       30.14S
CUY CO. ARPT   PTSUNNY   84  64  51 S15       30.17F
LORAIN-ELYRIA  FAIR      82  63  52 SW14G23   30.15F
ASHTABULA      FAIR      79  63  57 S12G21    30.18F
AKRON-CANTON   PTSUNNY   82  59  45 SW13G21   30.19F
WOOSTER        FAIR      79  65  62 S12       30.19F
MANSFIELD      CLOUDY    80  64  58 S15G23    30.18F
YOUNGSTOWN     FAIR      79  60  52 SW9       30.19F
$$

OHZ042-051>053-060>062-070>072-077>081-241800-
  SOUTHWEST OHIO

CITY           SKY/WX    TMP DP  RH WIND       PRES   REMARKS
CINC-COVINGTON PTSUNNY   83  73  72 SW9       30.17F
CINC-LUNKEN    FAIR      84  74  71 S9        30.16F HX  91
HAMILTON       FAIR      86  72  62 SW8       30.15F HX  92
DAYTON         PTSUNNY   79  68  69 S13       30.16F
WRIGHT-PAT AFB FAIR      78  69  72 SE10      30.15F
DAYTON GENERAL FAIR      79  69  71 S10       30.16F
WILMINGTON     FAIR      78  70  76 S9        30.18F
$$

OHZ036-037-039>041-045>050-054>059-063>069-073>076-082>088-241800-
  CENTRAL AND SOUTHEAST OHIO

CITY           SKY/WX    TMP DP  RH WIND       PRES   REMARKS
COLUMBUS       CLOUDY    81  64  56 SW12      30.18F
OSU AIRPORT    PTSUNNY   81  67  62 S12G20    30.18F
BOLTON FIELD   PTSUNNY   81  70  69 SW10      30.20S
RICKENBACK AFB FAIR      80  66  63 S8        30.18F
NEWARK         FAIR      82  66  58 S10       30.18F
MARION         PTSUNNY   80  64  58 S14       30.17F
LANCASTER      FAIR      83  67  58 S10       30.19F
ZANESVILLE     FAIR      83  67  58 S12       30.19F
NEW PHILLY     FAIR      83  61  47 VRB6      30.19F
$$




USA.gov is the U.S. government's official web portal to all federal, state and local government web resources and services.